St. Cloud, MN

7:23 AM CDT on October 23, 2017 (GMT -0500)
Saint Cloud Regional

Weather History for KSTC - September, 2012

Change the Weather History Date:

Sunday, September 23, 2012

  Actual Average Record
Temperature  
Mean Temperature 46 °F 55 °F  
Max Temperature 62 °F 67 °F 89 °F (1937)
Min Temperature 30 °F 44 °F 23 °F (1983)
Degree Days  
Heating Degree Days 19 10  
Month to date heating degree days 132 147  
Since 1 July heating degree days 163 205  
Cooling Degree Days 0 0  
Month to date cooling degree days 48 31  
Year to date cooling degree days 739 460  
Moisture  
Dew Point 27 °F    
Average Humidity 54    
Maximum Humidity 85    
Minimum Humidity 23    
Precipitation  
Precipitation 0.00 in 0.11 in 1.60 in (1984)
Month to date precipitation 0.24 2.78  
Year to date precipitation 21.73 22.36  
Snow  
Snow 0.00 in 0.00 in 0.00 in ()
Month to date snowfall 0.0 0.0  
Since 1 July snowfall 0.0 0.0  
Since 1 September snowfall 0.0 0.0  
Snow Depth 0.00 in    
Sea Level Pressure  
Sea Level Pressure 30.29 in    
Wind  
Wind Speed 5 mph (WNW)    
Max Wind Speed 16 mph    
Max Gust Speed 23 mph    
Visibility 10 miles    
Events      
T = Trace of Precipitation, MM = Missing Value Source: NWS Daily Summary

Daily Weather History Graph

Daily Weather History Graph

Search for Another Location

Airport or City:

Trip Planner

Search our weather history database for the weather conditions in past years. The results will help you decide how hot, cold, wet, or windy it might be!

Date:

Astronomy

Sep. 23, 2012 Rise Set
Actual Time 7:05 AM CDT 7:10 PM CDT
Civil Twilight 6:35 AM CDT 7:40 PM CDT
Nautical Twilight 6:00 AM CDT 8:14 PM CDT
Astronomical Twilight 5:25 AM CDT 8:50 PM CDT
Moon 3:28 PM CDT 12:01 AM CDT
Length of Visible Light 13h 04m
Length of Day
12h 05m
First Quarter, 60% of the Moon is Illuminated
Sep 23
First Quarter
Sep 29
Full
Oct 8
Last Quarter
Oct 15
New
Oct 21
First Quarter

Hourly Weather History & Observations

Time (CDT) Temp. Windchill Dew Point Humidity Pressure Visibility Wind Dir Wind Speed Gust Speed Precip Events Conditions
12:53 AM 32.0 °F - 27.0 °F 82% 30.30 in 10.0 mi Calm Calm - N/A   Clear
1:53 AM 33.1 °F - 28.0 °F 82% 30.31 in 10.0 mi Calm Calm - N/A   Clear
2:53 AM 33.1 °F - 28.0 °F 82% 30.32 in 10.0 mi Calm Calm - N/A   Clear
3:53 AM 33.1 °F - 27.0 °F 78% 30.32 in 10.0 mi Calm Calm - N/A   Clear
4:53 AM 35.1 °F 32.2 °F 28.9 °F 78% 30.32 in 10.0 mi NW 3.5 mph - N/A   Overcast
5:53 AM 30.9 °F - 27.0 °F 85% 30.33 in 10.0 mi Calm Calm - N/A   Clear
6:53 AM 32.0 °F - 28.0 °F 85% 30.34 in 10.0 mi Calm Calm - N/A   Clear
7:53 AM 34.0 °F - 28.9 °F 82% 30.35 in 10.0 mi Calm Calm - N/A   Clear
8:53 AM 41.0 °F 37.1 °F 33.1 °F 73% 30.36 in 10.0 mi NW 5.8 mph - N/A   Clear
9:53 AM 46.9 °F - 30.9 °F 54% 30.36 in 10.0 mi NW 6.9 mph - N/A   Clear
10:53 AM 52.0 °F - 28.0 °F 40% 30.35 in 10.0 mi NW 11.5 mph - N/A   Clear
11:53 AM 55.0 °F - 27.0 °F 34% 30.34 in 10.0 mi NNW 13.8 mph 21.9 mph N/A   Partly Cloudy
12:53 PM 55.9 °F - 27.0 °F 33% 30.34 in 10.0 mi West 9.2 mph 18.4 mph N/A   Clear
1:53 PM 57.9 °F - 25.0 °F 28% 30.31 in 10.0 mi NW 11.5 mph 23.0 mph N/A   Clear
2:53 PM 59.0 °F - 25.0 °F 27% 30.29 in 10.0 mi NNW 10.4 mph 16.1 mph N/A   Clear
3:53 PM 61.0 °F - 24.1 °F 24% 30.27 in 10.0 mi NW 9.2 mph - N/A   Clear
4:53 PM 60.1 °F - 24.1 °F 25% 30.24 in 10.0 mi West 9.2 mph - N/A   Clear
5:53 PM 60.1 °F - 23.0 °F 24% 30.23 in 10.0 mi West 9.2 mph - N/A   Clear
6:53 PM 55.9 °F - 23.0 °F 28% 30.22 in 10.0 mi WNW 6.9 mph - N/A   Clear
7:53 PM 46.9 °F - 26.1 °F 44% 30.23 in 10.0 mi Calm Calm - N/A   Clear
8:53 PM 41.0 °F - 28.9 °F 62% 30.23 in 10.0 mi Calm Calm - N/A   Clear
9:53 PM 39.9 °F - 28.9 °F 65% 30.22 in 10.0 mi Calm Calm - N/A   Clear
10:53 PM 39.9 °F - 28.0 °F 63% 30.20 in 10.0 mi Calm Calm - N/A   Clear
11:53 PM 35.1 °F 32.2 °F 27.0 °F 72% 30.18 in 10.0 mi South 3.5 mph - N/A   Clear